Flag for Barbados Weather past 2 weeks in Bridgetown, Barbados

Now
81 °F

Scattered clouds.


Feels Like: 85 °F
Forecast: 82 / 86 °F
Wind: 20 mph from East

Location: Grantley Adams

Current Time: Aug 31, 2014 at 7:00:43 AM

Latest Report: Aug 31, 2014 at 6:00 AM


Visibility: N/A

Pressure: 29.95 "Hg

Humidity: 79%

Dew point: 73 °F

Location of BridgetownLocation

Historic Weather in Bridgetown — Graph

°F

Bridgetown temperature yesterday

Maximum temperature yesterday: 86 °F (at 11:00 AM)
Minimum temperature yesterday: 70 °F (at 1:00 PM)
Average temperature yesterday: 81 °F

Past Weeks' High & Low Weather Summary

 TemperatureHumidityPressure
High88 °F (Aug 16, 12:00 PM)100% (Aug 27, 9:00 AM)30.04 "Hg (Aug 27, 9:00 AM)
Low70 °F (Aug 30, 1:00 PM)66% (Aug 18, 12:00 PM)29.83 "Hg (Aug 21, 2:00 PM)
Average82 °F82%29.93 "Hg
* Reported Aug 16 6:00 AM — Aug 31 6:00 AM, Bridgetown, Weather by CustomWeather, © 2014

Note: Actual official high and low records may vary slightly from our data, if they occured in-between our weather recording intervals... More about our weather records

Advertising

Bridgetown weather history for previous 24 hours

 ConditionsComfort  
Time TempWeatherWind HumidityBarometerVisibility
6:00 AM
Aug 31
81 °FScattered clouds.20 mph79%29.95 "HgN/A
5:00 AM81 °FPassing clouds.20 mph84%29.95 "HgN/A
4:00 AM81 °FPassing clouds.20 mph84%29.95 "HgN/A
3:00 AM81 °FPassing clouds.20 mph84%29.95 "HgN/A
2:00 AM81 °FPassing clouds.22 mph84%29.95 "HgN/A
1:00 AM81 °FPassing clouds.21 mph84%29.98 "HgN/A
12:00 AM81 °FPassing clouds.18 mph84%29.98 "HgN/A
11:00 PM
Aug 30
81 °FPassing clouds.20 mph89%29.98 "HgN/A
10:00 PM81 °FPassing clouds.17 mph89%30.01 "HgN/A
9:00 PM81 °FPassing clouds.14 mph89%29.98 "HgN/A
8:00 PM81 °FPassing clouds.12 mph89%29.98 "HgN/A
7:00 PM81 °FPassing clouds.13 mph84%29.98 "HgN/A
6:00 PM81 °FScattered showers. Scattered clouds.9 mph89%29.95 "HgN/A
5:00 PM82 °FScattered showers. Scattered clouds.7 mph84%29.95 "HgN/A
4:00 PM84 °FScattered showers. Broken clouds.9 mph79%29.95 "HgN/A
3:00 PM82 °FScattered showers. Broken clouds.16 mph84%29.98 "HgN/A
2:00 PM82 °FBroken clouds.14 mph84%29.98 "HgN/A
1:00 PM70 °FBroken clouds.17 mph100%30.01 "HgN/A
12:00 PM84 °FPartly sunny.20 mph79%30.01 "HgN/A
11:00 AM86 °FScattered showers. Partly sunny.18 mph75%30.04 "HgN/A
10:00 AM84 °FSprinkles. Broken clouds.21 mph79%30.01 "HgN/A
9:00 AM84 °FPartly sunny.21 mph79%30.01 "HgN/A
8:00 AM81 °FBroken clouds.16 mph89%30.01 "HgN/A
7:00 AM82 °FBroken clouds.17 mph84%29.98 "HgN/A
Weather by CustomWeather, © 2014

See weather overviewHow to use our weather pages